Tracking 20241 objects as of 25-Jan-2020
HD Live streaming from Space Station
objects crossing your sky now

COSMOS 2251 DEB

Track COSMOS 2251 DEB now!
10-day predictions


NORAD ID: 34971
Int'l Code: 1993-036AFA
Perigee: 674.9 km
Apogee: 779.3 km
Inclination: 74.0 °
Period: 99.2 minutes
Semi major axis: 7098 km
RCS: 0.0097 m2 (small)
Launch date: June 16, 1993
Source: Commonwealth of Independent States (former USSR) (CIS)
Launch site: PLESETSK MISSILE AND SPACE COMPLEX (PKMTR)

Note: This is SATELLITE DEBRIS
aabbcc
Your satellite tracking list
Your tracking list is empty




NASA's NSSDC Master Catalog

Two Line Element Set (TLE):
1 34971U 93036AFA 20024.40119508 +.00000077 +00000-0 +25835-4 0  9992
2 34971 073.9795 034.4966 0073568 043.8094 022.2800 14.51744509349577
Source of the keplerian elements: AFSPC